Location: Overspoor
(51.4747°N, 5.6641°E)
Time: 07:37:55
(UTC+02:00)

NANOSAT C BR1 - Pass Details

Date: 02 July 2022
Orbit: 584 x 599 km, 98.0° (Epoch: 17 August)

Event Time Altitude Azimuth Distance (km) Brightness Sun altitude
Rises 03:17:54 0° 20° (NNE) 2,852 ? -12.5°
Reaches altitude 10° 03:20:13 10° 29° (NNE) 1,947 ? -12.4°
Maximum altitude 03:24:09 37° 97° (E) 948 ? -12.1°
Enters shadow 03:28:01 10° 165° (SSE) 1,925 ? -11.9°
